TimeCST,TemperatureF,Dew PointF,Humidity,Sea Level PressureIn,VisibilityMPH,Wind Direction,Wind SpeedMPH,Gust SpeedMPH,PrecipitationIn,Events,Conditions,WindDirDegrees,DateUTC
1:56 AM,66.9,55.9,68,29.77,10.0,SSE,13.8,-,N/A,,Clear,160,2013-03-05 07:56:00
2:56 AM,64.4,55.4,73,29.81,10.0,South,8.1,-,N/A,,Clear,180,2013-03-05 08:56:00
3:56 AM,63.0,55.9,78,29.78,10.0,SSE,9.2,-,N/A,,Clear,160,2013-03-05 09:56:00
4:56 AM,59.9,54.9,83,29.81,10.0,SSW,3.5,-,N/A,,Clear,210,2013-03-05 10:56:00
5:06 AM,60.8,57.2,88,29.86,10.0,West,10.4,34.5,N/A,,Squalls,260,2013-03-05 11:06:00
5:56 AM,57.2,53.6,88,29.91,9.0,Calm,Calm,-,N/A,,Clear,0,2013-03-05 11:56:00
6:56 AM,61.0,54.9,80,29.96,10.0,NE,10.4,-,N/A,,Clear,40,2013-03-05 12:56:00
7:56 AM,63.0,50.0,63,30.08,6.0,North,28.8,39.1,N/A,,Haze,10,2013-03-05 13:56:00
8:56 AM,61.0,37.9,42,30.19,6.0,NNE,28.8,40.3,N/A,,Haze,20,2013-03-05 14:56:00
9:56 AM,61.9,34.9,36,30.24,7.0,North,25.3,39.1,N/A,,Scattered Clouds,10,2013-03-05 15:56:00
10:56 AM,64.9,34.9,33,30.29,10.0,NNE,26.5,32.2,N/A,,Clear,20,2013-03-05 16:56:00
11:56 AM,66.9,32.9,28,30.30,10.0,North,21.9,27.6,N/A,,Clear,10,2013-03-05 17:56:00
12:56 PM,68.0,32.9,27,30.29,10.0,NNW,20.7,26.5,N/A,,Clear,340,2013-03-05 18:56:00
1:56 PM,70.0,32.0,25,30.27,10.0,North,18.4,25.3,N/A,,Clear,350,2013-03-05 19:56:00
2:56 PM,70.9,32.0,24,30.25,10.0,North,16.1,24.2,N/A,,Clear,350,2013-03-05 20:56:00
3:56 PM,72.0,32.0,23,30.24,10.0,North,13.8,18.4,N/A,,Clear,10,2013-03-05 21:56:00
4:56 PM,72.0,31.1,22,30.24,10.0,NNE,9.2,-,N/A,,Clear,20,2013-03-05 22:56:00
5:56 PM,70.9,30.0,22,30.25,10.0,NNE,9.2,-,N/A,,Clear,30,2013-03-05 23:56:00
6:56 PM,68.0,30.0,24,30.27,10.0,NNE,8.1,-,N/A,,Clear,20,2013-03-06 00:56:00
7:56 PM,63.9,28.0,26,30.28,10.0,NE,5.8,-,N/A,,Clear,40,2013-03-06 01:56:00
8:56 PM,61.9,27.1,27,30.30,10.0,NE,5.8,-,N/A,,Clear,40,2013-03-06 02:56:00
9:56 PM,59.9,26.1,27,30.32,10.0,NE,8.1,-,N/A,,Clear,50,2013-03-06 03:56:00
10:56 PM,54.9,25.2,32,30.33,10.0,ENE,4.6,-,N/A,,Clear,70,2013-03-06 04:56:00
11:56 PM,54.9,24.1,30,30.33,10.0,ENE,5.8,-,N/A,,Clear,70,2013-03-06 05:56:00